Meteo pe oră la Bolshoe Aretovo

Astăzi, 9 Mai, Duminică

Timp Temperatura Precipitaţii Vânt Presiune Umiditate
00:00 0°C° 0 mm 4 m/s 743 mmHg 83%
01:00 0°C° 0 mm 4 m/s 744 mmHg 84%
02:00 -1°C° 0 mm 4 m/s 744 mmHg 86%
03:00 -1°C° 0 mm 4 m/s 744 mmHg 86%
04:00 0°C° 0 mm 3 m/s 745 mmHg 86%
05:00 -1°C° 0 mm 3 m/s 746 mmHg 86%
06:00 +1°C° 0 mm 3 m/s 746 mmHg 77%
07:00 +3°C° 0 mm 4 m/s 747 mmHg 67%
08:00 +5°C° 0 mm 4 m/s 747 mmHg 58%
09:00 +6°C° 0 mm 5 m/s 747 mmHg 52%
10:00 +7°C° 0 mm 5 m/s 748 mmHg 47%
11:00 +9°C° 0 mm 5 m/s 748 mmHg 42%
12:00 +9°C° 0 mm 5 m/s 748 mmHg 40%
13:00 +10°C° 0 mm 5 m/s 749 mmHg 38%
14:00 +10°C° 0 mm 5 m/s 749 mmHg 36%
15:00 +11°C° 0 mm 4 m/s 749 mmHg 39%
16:00 +11°C° 0 mm 3 m/s 749 mmHg 42%
17:00 +11°C° 0 mm 3 m/s 750 mmHg 45%
18:00 +9°C° 0 mm 2 m/s 750 mmHg 52%
19:00 +7°C° 0 mm 2 m/s 751 mmHg 59%
20:00 +7°C° 0 mm 1 m/s 751 mmHg 66%
21:00 +6°C° 0 mm 1 m/s 751 mmHg 68%
22:00 +5°C° 0 mm 1 m/s 752 mmHg 71%
23:00 +4°C° 0 mm 1 m/s 752 mmHg 73%

Mâine, 10 Mai, Luni

Timp Temperatura Precipitaţii Vânt Presiune Umiditate
00:00 +4°C° 0 mm 1 m/s 753 mmHg 72%
01:00 +4°C° 0 mm 1 m/s 753 mmHg 72%
02:00 +4°C° 0 mm 1 m/s 753 mmHg 71%
03:00 +4°C° 0 mm 1 m/s 753 mmHg 71%
04:00 +4°C° 0 mm 1 m/s 754 mmHg 70%
05:00 +3°C° 0 mm 2 m/s 754 mmHg 70%
06:00 +5°C° 0 mm 2 m/s 754 mmHg 64%
07:00 +7°C° 0 mm 2 m/s 754 mmHg 58%
08:00 +10°C° 0 mm 3 m/s 755 mmHg 52%
09:00 +11°C° 0 mm 3 m/s 755 mmHg 50%
10:00 +12°C° 0 mm 3 m/s 755 mmHg 47%
11:00 +14°C° 0 mm 3 m/s 755 mmHg 44%
12:00 +14°C° 0 mm 3 m/s 754 mmHg 44%
13:00 +16°C° 0 mm 3 m/s 754 mmHg 44%
14:00 +16°C° 0 mm 2 m/s 754 mmHg 44%
15:00 +16°C° 0 mm 2 m/s 754 mmHg 46%
16:00 +16°C° 0 mm 2 m/s 754 mmHg 48%
17:00 +16°C° 0 mm 2 m/s 754 mmHg 51%
18:00 +14°C° 0 mm 2 m/s 754 mmHg 58%
19:00 +12°C° 0 mm 1 m/s 754 mmHg 65%
20:00 +10°C° 0 mm 1 m/s 754 mmHg 72%
21:00 +9°C° 0 mm 1 m/s 754 mmHg 72%
22:00 +8°C° 0 mm 2 m/s 754 mmHg 73%
23:00 +7°C° 0 mm 2 m/s 754 mmHg 73%

Poimâine, 11 Mai, Marţi

Timp Temperatura Precipitaţii Vânt Presiune Umiditate
00:00 +7°C° 0 mm 2 m/s 755 mmHg 74%
01:00 +7°C° 0 mm 1 m/s 755 mmHg 75%
02:00 +7°C° 0 mm 1 m/s 755 mmHg 76%
03:00 +7°C° 0 mm 1 m/s 755 mmHg 76%
04:00 +6°C° 0 mm 2 m/s 755 mmHg 76%
05:00 +6°C° 0 mm 2 m/s 755 mmHg 76%
06:00 +8°C° 0 mm 2 m/s 755 mmHg 68%
07:00 +10°C° 0 mm 2 m/s 755 mmHg 61%
08:00 +12°C° 0 mm 3 m/s 755 mmHg 53%
09:00 +13°C° 0 mm 3 m/s 755 mmHg 48%
10:00 +16°C° 0 mm 3 m/s 754 mmHg 43%
11:00 +17°C° 0 mm 3 m/s 754 mmHg 38%
12:00 +18°C° 0 mm 3 m/s 754 mmHg 37%
13:00 +19°C° 0 mm 3 m/s 753 mmHg 36%
14:00 +19°C° 0 mm 3 m/s 753 mmHg 35%
15:00 +19°C° 0 mm 3 m/s 753 mmHg 41%
16:00 +19°C° 0 mm 3 m/s 753 mmHg 46%
17:00 +19°C° 0 mm 3 m/s 753 mmHg 52%
18:00 +17°C° 0 mm 3 m/s 753 mmHg 61%
19:00 +15°C° 0 mm 2 m/s 752 mmHg 69%
20:00 +13°C° 0 mm 2 m/s 752 mmHg 78%
21:00 +12°C° 0 mm 2 m/s 752 mmHg 82%
22:00 +10°C° 0 mm 2 m/s 752 mmHg 85%
23:00 +10°C° 0 mm 2 m/s 752 mmHg 89%

12 Mai, Miercuri

Timp Temperatura Precipitaţii Vânt Presiune Umiditate
00:00 +10°C° 0 mm 2 m/s 752 mmHg 91%
01:00 +10°C° 0 mm 2 m/s 752 mmHg 93%
02:00 +9°C° 0 mm 2 m/s 752 mmHg 95%
03:00 +9°C° 0 mm 2 m/s 752 mmHg 96%
04:00 +10°C° 0 mm 2 m/s 752 mmHg 96%
05:00 +11°C° 0 mm 1 m/s 752 mmHg 97%
06:00 +12°C° 0 mm 1 m/s 751 mmHg 92%
07:00 +13°C° 0 mm 1 m/s 751 mmHg 87%
08:00 +14°C° 0 mm 1 m/s 751 mmHg 82%
09:00 +13°C° 0.2 mm 2 m/s 751 mmHg 85%
10:00 +11°C° 0.2 mm 3 m/s 750 mmHg 88%
11:00 +9°C° 0.2 mm 3 m/s 750 mmHg 91%
12:00 +9°C° 0.4 mm 2 m/s 750 mmHg 91%
13:00 +10°C° 0.4 mm 1 m/s 750 mmHg 90%
14:00 +10°C° 0.4 mm 1 m/s 750 mmHg 90%
15:00 +11°C° 0 mm 1 m/s 750 mmHg 87%
16:00 +10°C° 0 mm 2 m/s 749 mmHg 85%
17:00 +11°C° 0 mm 3 m/s 749 mmHg 82%
18:00 +10°C° 0 mm 3 m/s 749 mmHg 86%
19:00 +9°C° 0 mm 3 m/s 748 mmHg 91%
20:00 +8°C° 0 mm 2 m/s 748 mmHg 95%
21:00 +8°C° 0 mm 3 m/s 748 mmHg 95%
22:00 +8°C° 0 mm 3 m/s 747 mmHg 95%
23:00 +8°C° 0 mm 3 m/s 747 mmHg 95%

13 Mai, Joi

Timp Temperatura Precipitaţii Vânt Presiune Umiditate
00:00 +8°C° 0 mm 3 m/s 746 mmHg 95%
01:00 +7°C° 0 mm 4 m/s 746 mmHg 96%
02:00 +7°C° 0 mm 4 m/s 746 mmHg 96%
03:00 +7°C° 0.3 mm 4 m/s 745 mmHg 95%
04:00 +8°C° 0.3 mm 4 m/s 745 mmHg 94%
05:00 +8°C° 0.3 mm 5 m/s 744 mmHg 94%
06:00 +8°C° 0.2 mm 5 m/s 745 mmHg 90%
07:00 +9°C° 0.2 mm 6 m/s 745 mmHg 87%
08:00 +9°C° 0.2 mm 6 m/s 745 mmHg 83%
09:00 +10°C° 0.1 mm 6 m/s 745 mmHg 76%
10:00 +11°C° 0.1 mm 6 m/s 745 mmHg 68%
11:00 +12°C° 0.1 mm 7 m/s 745 mmHg 61%
12:00 +14°C° 0.1 mm 6 m/s 745 mmHg 59%
13:00 +14°C° 0.1 mm 6 m/s 745 mmHg 57%
14:00 +15°C° 0.1 mm 6 m/s 745 mmHg 56%
15:00 +15°C° 0 mm 5 m/s 745 mmHg 58%
16:00 +15°C° 0 mm 4 m/s 745 mmHg 61%
17:00 +16°C° 0 mm 3 m/s 745 mmHg 63%
18:00 +13°C° 0 mm 3 m/s 745 mmHg 71%
19:00 +13°C° 0 mm 2 m/s 745 mmHg 78%
20:00 +12°C° 0 mm 1 m/s 745 mmHg 85%
21:00 +12°C° 0.3 mm 1 m/s 745 mmHg 89%
22:00 +12°C° 0.3 mm 2 m/s 745 mmHg 93%
23:00 +12°C° 0.3 mm 2 m/s 744 mmHg 96%

14 Mai, Vineri

Timp Temperatura Precipitaţii Vânt Presiune Umiditate
00:00 +12°C° 0.4 mm 2 m/s 744 mmHg 97%
01:00 +11°C° 0.4 mm 3 m/s 743 mmHg 97%
02:00 +12°C° 0.4 mm 3 m/s 743 mmHg 97%
03:00 +12°C° 0.4 mm 3 m/s 742 mmHg 96%
04:00 +12°C° 0.4 mm 4 m/s 742 mmHg 95%
05:00 +12°C° 0.4 mm 4 m/s 742 mmHg 95%
06:00 +12°C° 0.7 mm 4 m/s 742 mmHg 95%
07:00 +12°C° 0.7 mm 4 m/s 742 mmHg 95%
08:00 +13°C° 0.7 mm 4 m/s 741 mmHg 95%
09:00 +14°C° 0.2 mm 4 m/s 741 mmHg 92%
10:00 +14°C° 0.2 mm 4 m/s 741 mmHg 90%
11:00 +15°C° 0.2 mm 4 m/s 741 mmHg 88%
12:00 +15°C° 0.9 mm 4 m/s 741 mmHg 89%
13:00 +16°C° 0.9 mm 3 m/s 741 mmHg 89%
14:00 +16°C° 0.9 mm 3 m/s 741 mmHg 90%
15:00 +17°C° 0.5 mm 3 m/s 741 mmHg 88%
16:00 +17°C° 0.5 mm 3 m/s 741 mmHg 86%
17:00 +18°C° 0.5 mm 3 m/s 741 mmHg 85%
18:00 +16°C° 0.2 mm 2 m/s 741 mmHg 88%
19:00 +15°C° 0.2 mm 2 m/s 741 mmHg 91%
20:00 +14°C° 0.2 mm 2 m/s 741 mmHg 94%
21:00 +14°C° 0.1 mm 2 m/s 741 mmHg 94%
22:00 +13°C° 0.1 mm 2 m/s 741 mmHg 94%
23:00 +12°C° 0.1 mm 1 m/s 742 mmHg 94%
Arată mai mult

Formular de consimțământ

Meteoprog și furnizorii noștri de servicii pot stoca și accesa date personale, precum cookies, identificatori de dispozitiv sau alte tehnologii similare pe dispozitivul dumneavoastră și procesa astfel de date pentru a personaliza conținutul și reclamele, dar și pentru a oferi caracteristici de social media și pentru a analiza traficul.

  • Stocarea și/sau accesarea informațiilor pe dispozitivul dumneavoastră

    Cookies, identificatori de dispozitiv sau alte informații pot fi stocate sau accesate pe dispozitiv în scopurile indicate mai sus.

  • Reclame și conținut personalizat, evaluarea reclamelor și a conținutului, informații despre audiențe și dezvoltarea produselor

    Reclamele și conținutul pot fi personalizate pe baza unui profil. Pot fi adăugate date suplimentare pentru a personaliza mai bine reclamele și conținutul. Performanța reclamelor și conținutului poate fi măsurată. Pot fi obținute informații despre utilizatorii care au văzut reclamele și conținutul. Aceste date pot fi utilizate pentru a dezvolta sau îmbunătăți experiența utilizatorilor, sistemele și software-ul.

Dând clic pe ‘Sunt de acord’, permiteți utilizarea cookie-urilor menționate, a identificatorilor de dispozitiv, balizelor web sau altor tehnologii similare. Setările pot fi modificate din browser-ul dispozitivului dumneavoastră.

În anumite scopuri, interesele legitime pot prima asupra consimțământului. Puteți citi mai multe informații în acest sens în Politica privind Confidențialitatea Datelor și Cookie.